This demonstration page uses our WeatherBlox Daily Observations layout. Learn more.

Left ArrowRight Arrow

Hourly Observations for June 27, 2021

Temp ( °F °C ) Dew Point ( °F °C ) Humidity (%) Winds ( mph kmh ) Pressure ( in mb ) Visibility ( mi km ) Precip ( " mm )
12:53 am 00:53 Mostly Cloudy 78 25.6 65 18.3 64 64 ENE 14 22 29.72 1007 10 16 0.00 0.00
1:26 am 01:26 Mostly Cloudy with Nearby Thunderstorms 76 24.4 66 18.9 72 72 N 15 24 29.73 1007 10 16 0.00 0.00
1:35 am 01:35 Cloudy with Thunderstorms 74 23.3 66 18.9 76 76 N 8 13 29.77 1008 10 16 0.00 0.00
1:50 am 01:50 Cloudy with Strong Thunderstorms 72 22 66 19 83 83 Calm 29.81 1009 2 2 0.00 0.00
1:53 am 01:53 Cloudy with Strong Thunderstorms 70 21.1 67 19.4 90 90 undefined N/A 29.77 1008 1 1 0.00 0.00
2:03 am 02:03 Cloudy with Strong Thunderstorms 70 21.1 67 19.4 90 90 E 23 37 29.77 1008 1 2 0.00 0.00
2:12 am 02:12 Windy with Storms Likely 70 21.1 66 18.9 87 87 E 23 37 29.74 1007 3 5 0.00 0.00
2:28 am 02:28 Partly Cloudy with Thunderstorms 72 22.2 66 18.9 82 82 ESE 21 33 29.73 1007 10 16 0.00 0.00
2:36 am 02:36 Mostly Clear with Nearby Thunderstorms 72 22.2 66 18.9 82 82 ESE 22 35 29.73 1007 10 16 0.00 0.00
2:46 am 02:46 Mostly Clear 72 22.2 67 19.4 84 84 NNE 17 28 29.78 1008 10 16 0.00 0.00
2:53 am 02:53 Partly Cloudy 71 21.7 67 19.4 87 87 N 23 37 29.76 1008 10 16 0.00 0.00
3:00 am 03:00 Mostly Cloudy 70 21.1 66 18.9 87 87 NNE 23 37 29.79 1009 10 16 0.00 0.00
3:30 am 03:30 Cloudy with Nearby Thunderstorms 70 21.1 65 18.3 84 84 NNE 26 43 29.80 1009 10 16 0.00 0.00
3:53 am 03:53 Cloudy with Nearby Thunderstorms 69 20.6 64 17.8 84 84 NE 23 37 29.78 1008 10 16 0.00 0.00
4:00 am 04:00 Cloudy 69 20.6 64 17.8 84 84 NE 28 44 29.81 1010 10 16 0.00 0.00
4:53 am 04:53 Cloudy 69 20.6 61 16.1 76 76 NE 18 30 29.80 1009 10 16 0.00 0.00
5:53 am 05:53 Cloudy 68 20 61 16.1 78 78 ENE 17 28 29.78 1008 10 16 0.00 0.00
6:45 am 06:45 Cloudy with Nearby Thunderstorms 68 20 61 16.1 78 78 ENE 18 30 29.85 1011 10 16 0.00 0.00
6:53 am 06:53 Cloudy with Nearby Thunderstorms 68 20 61 16.1 78 78 ENE 18 30 29.80 1009 10 16 0.00 0.00
7:21 am 07:21 Cloudy with Nearby Thunderstorms 68 20 61 16.1 78 78 NE 8 13 29.90 1013 9 14 0.00 0.00
7:49 am 07:49 Cloudy with Thunderstorms 66 19 63 17 88 88 ENE 17 28 29.89 1012 5 8 0.00 0.00
7:53 am 07:53 Cloudy with Thunderstorms 65 18.3 62 16.7 90 90 ENE 15 24 29.83 1010 6 10 0.00 0.00
8:17 am 08:17 Mostly Cloudy with Nearby Thunderstorms 65 18.3 61 16.1 87 87 E 16 26 29.88 1012 10 16 0.00 0.00
8:44 am 08:44 Cloudy 65 18.3 61 16.1 87 87 ENE 5 7 29.91 1013 10 16 0.00 0.00
8:53 am 08:53 Cloudy 64 17.8 61 16.1 90 90 E 3 6 29.90 1012 10 16 0.00 0.00
9:37 am 09:37 Cloudy with Light Rain 65 18.3 63 17.2 93 93 NNW 6 9 29.94 1014 8 13 0.00 0.00
9:53 am 09:53 Cloudy with Rain 65 18.3 63 17.2 93 93 E 21 33 29.87 1011 7 11 0.00 0.00
10:23 am 10:23 Mostly Cloudy with Light Rain 65 18.3 62 16.7 90 90 ESE 9 15 29.94 1014 9 14 0.00 0.00
10:30 am 10:30 Cloudy with Light Rain 65 18.3 62 16.7 90 90 ESE 10 17 29.94 1014 6 10 0.00 0.00
10:53 am 10:53 Cloudy with Light Rain 65 18.3 62 16.7 90 90 SE 5 7 29.93 1013 10 16 0.00 0.00
11:53 am 11:53 Sunny 67 19.4 62 16.7 84 84 SE 8 13 29.92 1013 10 16 0.00 0.00
12:53 pm 12:53 Mostly Sunny 69 20.6 62 16.7 78 78 VRB 6 9 29.91 1013 10 16 0.00 0.00
1:53 pm 13:53 Partly Cloudy 73 22.8 63 17.2 71 71 SSE 5 7 29.91 1013 10 16 0.00 0.00
2:53 pm 14:53 Sunny 75 23.9 61 16.1 62 62 VRB 6 9 29.89 1012 10 16 0.00 0.00
3:53 pm 15:53 Sunny 76 24.4 62 16.7 62 62 NNW 7 11 29.86 1011 10 16 0.00 0.00
4:53 pm 16:53 Sunny 80 26.7 61 16.1 52 52 Calm 29.83 1010 10 16 0.00 0.00
5:53 pm 17:53 Sunny 79 26.1 60 15.6 52 52 WNW 6 9 29.82 1010 10 16 0.00 0.00
6:53 pm 18:53 Sunny 80 26.7 59 15 49 49 Calm 29.81 1010 10 16 0.00 0.00
7:53 pm 19:53 Partly Cloudy 80 26.7 60 15.6 51 51 E 9 15 29.82 1010 10 16 0.00 0.00
8:53 pm 20:53 Mostly Sunny 76 24.4 64 17.8 67 67 ESE 16 26 29.85 1011 10 16 0.00 0.00
9:53 pm 21:53 Partly Cloudy 73 22.8 66 18.9 79 79 E 12 19 29.88 1012 10 16 0.00 0.00
10:53 pm 22:53 Partly Cloudy 73 22.8 64 17.8 74 74 ENE 8 13 29.90 1013 10 16 0.00 0.00
11:53 pm 23:53 Cloudy 72 22.2 65 18.3 79 79 NE 3 6 29.90 1013 10 16 0.00 0.00

Powered by AerisWeather